Change the Weather History Date:

Wednesday, March 7, 2012

  Actual Average Record
Temperature  
Mean Temperature 69 °F 56 °F  
Max Temperature 79 °F 67 °F 88 °F (1992)
Min Temperature 59 °F 44 °F 21 °F (1943)
Degree Days  
Heating Degree Days 0 10  
Month to date heating degree days 25 74  
Since 1 July heating degree days 1488 1956  
Cooling Degree Days 4 1  
Month to date cooling degree days 16 5  
Year to date cooling degree days 55 15  
Growing Degree Days 20 (Base 50)    
Moisture  
Dew Point 58 °F    
Average Humidity 62    
Maximum Humidity 79    
Minimum Humidity 45    
Precipitation  
Precipitation T in 0.14 in 1.35 in (1995)
Month to date precipitation T 1.01  
Year to date precipitation 6.75 9.96  
Snow  
Snow 0.00 in - - ()
Month to date snowfall 0.0  
Since 1 July snowfall T  
Snow Depth 0.00 in    
Sea Level Pressure  
Sea Level Pressure 30.08 in    
Wind  
Wind Speed 14 mph (SSE)    
Max Wind Speed 26 mph    
Max Gust Speed 33 mph    
Visibility 10 miles    
Events Rain    
T = Trace of Precipitation, MM = Missing Value Source: NWS Daily Summary

Daily Weather History Graph

Daily Weather History Graph

Search for Another Location

Airport or City:

Trip Planner

Search our weather history database for the weather conditions in past years. The results will help you decide how hot, cold, wet, or windy it might be!

Date:

Astronomy

Mar. 07, 2012 Rise Set
Actual Time 6:34 AM CST 6:17 PM CST
Civil Twilight 6:10 AM CST 6:42 PM CST
Nautical Twilight 5:42 AM CST 7:10 PM CST
Astronomical Twilight 5:13 AM CST 7:39 PM CST
Moon 5:53 PM CST (3/7) 5:45 AM CST (3/7)
Length of Visible Light 12h 31m
Length of Day
11h 42m
Waxing Gibbous, 99% of the Moon is Illuminated
Mar 7
Waxing Gibbous
Mar 8
Full
Mar 14
Last Quarter
Mar 22
New
Mar 30
First Quarter

Hourly Weather History & Observations

Time (CST) Temp. Dew Point Humidity Pressure Visibility Wind Dir Wind Speed Gust Speed Precip Events Conditions
12:56 AM 62.1 °F 50.0 °F 65% 30.12 in 10.0 mi SSE 12.7 mph - N/A   Mostly Cloudy
1:56 AM 60.1 °F 51.1 °F 72% 30.12 in 10.0 mi SSE 10.4 mph - N/A   Mostly Cloudy
2:56 AM 60.1 °F 52.0 °F 75% 30.11 in 10.0 mi SSE 9.2 mph - N/A   Mostly Cloudy
3:56 AM 61.0 °F 53.1 °F 75% 30.09 in 10.0 mi SSE 9.2 mph - N/A   Overcast
4:56 AM 62.1 °F 54.0 °F 75% 30.12 in 10.0 mi SE 6.9 mph - N/A   Overcast
5:56 AM 62.1 °F 54.0 °F 75% 30.10 in 10.0 mi SSE 11.5 mph - N/A   Overcast
6:38 AM 62.6 °F 55.4 °F 77% 30.13 in 10.0 mi SE 11.5 mph - N/A   Overcast
6:56 AM 63.0 °F 55.0 °F 75% 30.12 in 10.0 mi SE 10.4 mph - N/A   Overcast
7:03 AM 62.6 °F 55.4 °F 77% 30.13 in 10.0 mi SE 10.4 mph - N/A   Overcast
7:42 AM 64.4 °F 55.4 °F 73% 30.15 in 10.0 mi SSE 10.4 mph 19.6 mph N/A   Overcast
7:56 AM 64.0 °F 57.0 °F 78% 30.14 in 10.0 mi SSE 12.7 mph - N/A   Overcast
8:03 AM 64.4 °F 57.2 °F 77% 30.14 in 10.0 mi SSE 15.0 mph - N/A   Overcast
8:28 AM 64.4 °F 57.2 °F 77% 30.14 in 10.0 mi SSE 12.7 mph 19.6 mph N/A   Overcast
8:35 AM 64.4 °F 57.2 °F 77% 30.14 in 10.0 mi SSE 15.0 mph - N/A   Overcast
8:56 AM 66.0 °F 57.9 °F 75% 30.14 in 10.0 mi SSE 16.1 mph - N/A   Overcast
9:56 AM 66.9 °F 59.0 °F 76% 30.14 in 10.0 mi SSE 15.0 mph 19.6 mph N/A   Overcast
10:56 AM 70.0 °F 60.1 °F 71% 30.12 in 10.0 mi SSE 15.0 mph 20.7 mph N/A   Overcast
11:56 AM 73.0 °F 60.1 °F 64% 30.11 in 10.0 mi SSE 17.3 mph 24.2 mph N/A   Overcast
12:56 PM 78.1 °F 55.9 °F 46% 30.06 in 10.0 mi South 23.0 mph 33.4 mph N/A   Overcast
1:56 PM 78.1 °F 55.9 °F 46% 30.04 in 10.0 mi South 18.4 mph 31.1 mph N/A   Mostly Cloudy
2:56 PM 79.0 °F 55.0 °F 44% 30.02 in 10.0 mi SSE 20.7 mph 31.1 mph N/A   Mostly Cloudy
3:56 PM 78.1 °F 55.0 °F 45% 30.01 in 10.0 mi South 18.4 mph 31.1 mph N/A   Mostly Cloudy
4:56 PM 78.1 °F 55.0 °F 45% 30.00 in 10.0 mi South 13.8 mph 23.0 mph N/A   Overcast
5:56 PM 77.0 °F 57.0 °F 50% 30.00 in 10.0 mi South 13.8 mph 23.0 mph N/A   Overcast
6:56 PM 75.9 °F 57.0 °F 52% 30.00 in 10.0 mi South 15.0 mph 23.0 mph N/A   Overcast
7:56 PM 75.0 °F 59.0 °F 57% 30.01 in 10.0 mi South 12.7 mph 19.6 mph N/A   Overcast
8:49 PM 71.6 °F 64.4 °F 78% 30.03 in 10.0 mi South 15.0 mph 23.0 mph 0.00 in Rain Light Rain
8:56 PM 72.0 °F 64.0 °F 76% 30.03 in 10.0 mi South 12.7 mph - 0.00 in Rain Light Rain
9:09 PM 71.6 °F 64.4 °F 78% 30.03 in 10.0 mi SSE 16.1 mph 20.7 mph 0.00 in Rain Light Rain
9:40 PM 71.6 °F 64.4 °F 78% 30.03 in 10.0 mi SSE 23.0 mph 31.1 mph 0.00 in   Overcast
9:56 PM 71.1 °F 64.9 °F 81% 30.03 in 10.0 mi SSE 16.1 mph 27.6 mph 0.00 in   Overcast
10:12 PM 71.6 °F 64.4 °F 78% 30.03 in 10.0 mi SSE 15.0 mph - N/A   Overcast
10:36 PM 71.6 °F 64.4 °F 78% 30.04 in 10.0 mi SSE 12.7 mph 20.7 mph N/A   Overcast
10:56 PM 71.1 °F 64.9 °F 81% 30.03 in 10.0 mi South 11.5 mph - N/A   Overcast
11:56 PM 70.0 °F 66.0 °F 87% 30.02 in 7.0 mi SSE 10.4 mph - 0.00 in   Overcast